{"data":{"norad_id":55338,"intl_designator":"2023-013H","name":"STARLINK-5658","alt_names":[],"object_type":"PAYLOAD","status":"ACTIVE","operator":null,"country":"US","launch_date":"2023-01-26","launch_site_code":"AFETR","launch_vehicle":null,"mission":null,"orbit_class":"UNKNOWN","rcs_meters":null,"size_class":null,"mass_kg":null,"dimensions":null,"purposes":["comms"],"wikipedia_slug":null,"has_3d_model":false,"image_url":null,"decayed_at":null,"tle_current":{"epoch":"2026-05-24T22:52:56.453952Z","epoch_age_seconds":82622,"freshness":"FRESH","line1":"1 55338U 23013H   26144.95343118  .00000841  00000+0  40079-4 0  9990","line2":"2 55338  43.0019 232.9994 0001309 274.6806  85.3896 15.27586999183335","mean_motion":15.27586999,"eccentricity":0.0001309,"inclination_deg":43.0019,"raan_deg":232.9994,"arg_perigee_deg":274.6806,"mean_anomaly_deg":85.3896,"bstar":4.0079e-5,"rev_number":18333,"period_min":94.266316808317,"perigee_km":482.13001207915,"apogee_km":483.92626511244,"semimajor_km":6861.1651385958,"source":"CELESTRAK","updated_at":"2026-05-25T13:38:17.761145Z"}}}